SCP
0 0 0 0 0 0 0 0 0 0 0 0 0 -0 0 -0 0 0 0 0 0 0 0 0 0 1 1 1 1 1 1 1 1 1 1 1 1 1 0 0 -0 -0 -0 0
0 0 0 0 0 0 0 0 0 0 0 0 0 0 -0 0 -0 0 0 0 0 0 0 1 0 0 1 1 1 1 1 1 1 1 1 1 1 1 0 0 -0 -0 0 0
-0 0 0 0 0 0 0 0 0 0 0 0 0 0 0 0 0 0 0 0 0 0 1 1 0 0 1 1 1 1 1 1 1 1 1 1 1 1 1 0 0 -0 -0 -0
-0 0 0 0 0 0 0 0 0 0 0 0 0 -0 -0 0 0 0 0 0 0 0 0 0 0 0 1 1 1 1 1 1 1 1 1 1 1 1 1 1 1 0 -0 -0
0 0 0 0 0 0 0 0 0 0 0 0 0 0 -0 -0 0 0 0 0 0 1 0 0 0 1 0 1 1 1 1 1 1 1 1 1 1 1 1 1 0 0 -0 -0
-0 0 0 0 0 0 0 0 0 0 0 0 0 0 -0 0 0 0 0 0 1 0 0 0 0 0 1 0 0 1 1 1 1 1 1 1 1 1 1 1 1 0 -0 -0
-0 0 0 0 0 0 0 0 0 0 0 0 0 0 0 0 0 0 0 0 2 1 1 2 1 1 1 1 0 0 0 0 1 1 1 1 1 2 2 1 1 0 0 -0
0 0 -0 -0 0 0 0 0 0 0 0 0 0 0 0 0 0 0 0 0 1 2 2 1 1 2 2 1 0 0 1 1 1 1 1 1 1 1 1 1 0 0 0 0
0 0 0 0 0 0 0 0 0 0 0 0 0 0 0 0 0 0 0 0 0 0 0 1 4 2 2 2 1 1 1 1 1 1 1 1 1 1 0 0 0 0 0 0
0 0 0 0 0 0 0 0 0 0 0 0 0 0 0 0 0 0 0 0 0 0 0 0 0 0 1 4 2 1 1 1 1 1 1 1 0 0 0 0 0 0 0 1
0 0 0 0 0 0 0 0 0 0 0 0 0 0 0 0 0 0 0 0 0 0 0 0 0 0 0 0 3 3 2 1 1 1 1 1 1 2 1 2 1 1 1 1
0 0 0 0 0 0 0 0 0 0 0 0 0 0 0 0 0 0 0 0 0 0 0 0 0 0 0 0 0 2 4 4 3 3 2 2 2 1 0 0 0 0 0 1
0 0 0 0 0 0 0 0 0 0 0 0 0 0 0 0 0 0 0 0 0 0 0 0 0 0 0 0 0 0 0 1 3 3 5 6 2 2 3 0 0 0 0 0
0 0 0 0 0 0 0 0 0 0 0 0 0 0 0 0 0 0 0 0 0 0 0 0 0 0 0 0 0 0 0 0 2 5 4 1 1 1 3 3 3 3 0 0
-0 0 0 0 0 0 0 0 0 0 0 0 0 0 0 0 0 0 0 0 0 0 0 0 0 0 0 0 0 0 0 0 0 0 1 1 2 2 2 2 2 3 1 0
0 -0 0 0 0 0 0 0 0 0 0 0 0 0 0 0 0 0 0 0 0 0 0 0 0 0 0 0 0 0 0 0 0 0 0 2 2 2 2 2 2 3 3 3
-0 -0 -0 -0 0 0 0 0 0 0 0 0 0 0 0 0 0 0 0 0 0 0 0 0 0 0 0 0 0 0 0 0 0 0 0 1 2 2 1 2 2 2 1 1
0 0 0 -0 -0 0 0 0 0 0 0 0 0 0 0 0 0 0 0 0 0 0 0 0 0 0 0 0 0 0 0 0 0 0 0 0 1 1 1 2 2 2 2 1
-0 0 0 0 -0 -0 -0 0 0 0 0 0 0 0 0 0 0 -0 -0 -0 0 0 0 0 0 0 0 0 0 0 0 0 0 0 0 0 0 0 1 2 2 2 2 1
-0 -0 -0 -0 0 -0 -0 -0 -0 0 0 0 0 0 0 0 0 0 0 -0 -0 0 0 0 0 0 0 0 0 0 0 0 0 0 0 0 0 0 1 0 1 0 0 0
-0 -0 -0 -0 -0 -0 -0 -0 0 0 0 0 0 0 0 0 0 0 0 0 0 0 0 0 -0 -0 0 0 0 0 0 0 0 0 0 0 0 0 0 0 0 0 0 0
-0 -0 -0 -0 -0 -0 -0 -0 -0 0 0 -0 0 0 0 0 0 0 0 0 0 0 0 0 0 0 0 0 0 0 0 0 0 0 0 0 0 0 0 0 0 0 0 0
-0 -0 -0 -0 -0 -0 -0 -0 -0 -0 0 0 -0 0 0 0 0 0 0 0 0 0 0 0 0 0 0 0 0 0 0 0 0 0 0 0 0 0 0 0 0 0 0 0
-0 -0 -0 -0 -0 -0 -0 -0 -0 -0 -0 -0 -0 -0 -0 0 0 0 0 0 0 0 0 0 0 0 0 0 0 0 0 0 0 0 0 0 0 0 0 0 0 0 0 0
0 -0 -0 -0 -0 0 -0 -0 -0 -0 -0 -0 -0 -0 -0 -0 -0 0 0 0 0 0 0 0 0 0 0 0 0 0 0 0 0 0 0 0 0 0 0 0 0 0 0 0
0 0 -0 -0 -0 -0 -0 -0 0 0 -0 -0 -0 -0 -0 -0 -0 -0 -0 -0 0 0 0 0 0 0 0 0 -0 0 0 0 0 0 0 0 0 0 0 0 0 0 0 0
0 -0 -0 0 0 0 0 0 0 0 0 0 -0 -0 -0 -0 -0 -0 -0 -0 -0 0 -0 -0 -0 -0 0 0 0 0 0 0 0 0 0 0 0 0 0 0 0 0 0 0
Wind_Speed_500mb
25 31 28 36 44 39 31 30 21 37 35 27 38 39 47 38 17 13 13 30 49 59 68 83 84 90 95 96 94 87 93 93 93 90 85 83 82 75 68 63 60 58 57 60
29 29 31 44 46 45 41 43 31 37 34 22 29 20 11 19 20 24 21 26 38 50 68 79 87 94 99 96 94 92 90 90 85 85 85 82 80 77 71 64 63 63 65 63
22 20 35 28 50 48 38 24 37 37 28 15 19 9 14 17 20 27 30 27 38 53 73 79 84 88 96 96 92 89 88 84 81 82 81 77 73 74 70 68 64 68 70 69
16 17 21 24 12 44 39 10 13 22 13 16 18 12 16 21 25 28 33 37 41 44 61 82 80 76 81 85 92 89 86 82 77 77 74 73 73 73 70 69 67 69 71 72
10 12 30 24 7 25 34 8 7 13 10 14 15 13 8 36 31 33 35 40 48 48 54 62 71 83 88 88 86 85 83 80 79 79 77 74 73 70 68 70 68 69 68 69
12 13 14 7 25 24 7 9 13 13 13 18 13 11 11 38 33 30 28 31 33 36 43 53 71 75 88 87 81 80 83 80 75 72 71 70 66 61 57 57 60 61 66 68
24 16 24 13 47 26 11 10 13 17 23 26 17 12 14 27 31 21 23 23 4 27 44 63 74 78 82 77 79 74 74 70 68 63 60 56 54 55 57 60 63 65 64 64
15 19 24 28 33 6 9 7 14 20 25 26 24 22 27 37 53 44 40 42 34 34 38 47 61 58 63 69 70 72 70 68 63 61 59 58 58 57 57 58 62 64 64 64
6 4 14 31 26 16 12 7 18 22 24 23 23 34 41 51 61 77 80 71 50 47 52 49 38 43 52 53 56 53 53 53 52 53 53 53 53 57 56 57 58 57 57 58
6 5 22 24 24 23 19 15 17 21 23 26 26 29 34 49 63 72 75 83 80 78 71 60 40 37 35 40 38 47 50 51 50 50 49 49 49 50 52 54 55 53 49 48
5 5 31 28 24 25 27 16 15 18 21 28 28 28 28 33 46 53 57 60 69 76 75 71 57 47 35 25 25 32 38 40 41 41 43 46 47 48 51 51 51 52 51 47
6 31 20 22 30 28 23 21 19 20 24 26 25 23 23 23 30 37 41 45 52 56 59 59 56 49 43 37 34 35 34 32 34 29 29 41 43 49 51 53 50 48 49 49
25 31 44 30 45 41 39 36 26 21 22 25 25 23 23 22 25 28 33 36 42 44 41 40 42 42 39 33 27 25 23 21 27 21 13 27 25 34 38 43 40 42 43 46
52 40 47 62 40 51 47 43 38 33 28 28 28 27 25 22 25 25 25 28 29 33 33 35 35 34 32 28 23 19 11 10 13 13 40 38 50 42 34 38 37 39 43 47
55 50 40 46 54 55 53 54 54 51 46 39 36 33 32 27 25 26 24 27 30 32 34 35 34 30 25 19 16 14 9 4 13 21 20 19 22 21 26 27 26 28 34 39
42 48 47 47 56 53 51 56 54 53 50 45 41 37 33 29 25 23 27 32 35 40 45 46 43 37 31 25 20 14 7 7 14 20 21 15 16 19 16 15 17 20 26 30
41 51 48 54 51 53 55 49 47 43 40 42 38 37 33 29 27 32 35 36 36 34 37 43 44 42 38 33 27 23 20 16 18 22 23 23 21 20 19 15 13 18 20 28
27 28 35 38 40 40 42 48 47 41 41 35 35 32 37 41 37 38 42 43 40 37 38 39 39 38 35 31 29 30 30 29 28 29 31 32 32 32 32 30 23 23 23 28
25 28 32 36 36 38 41 42 43 41 41 43 39 42 42 40 36 33 37 39 43 48 48 43 39 39 39 37 30 29 31 34 35 36 39 43 44 43 38 36 37 33 32 36
18 20 21 21 30 35 35 41 43 43 43 42 47 49 52 49 47 42 39 48 44 40 38 43 46 42 39 35 29 27 28 29 31 32 33 35 34 34 37 51 48 46 46 44
11 15 18 20 21 27 33 34 38 44 47 51 44 42 52 57 57 60 73 73 59 49 46 42 37 38 46 36 21 19 19 25 25 30 36 39 43 48 50 54 54 48 46 45
10 14 16 20 22 21 25 29 33 35 38 33 34 42 38 42 54 63 60 62 58 67 72 60 44 37 21 16 13 5 6 12 19 21 25 31 34 35 37 45 46 42 42 42
7 13 12 13 17 21 25 24 22 25 19 23 27 28 36 46 46 39 45 47 48 49 55 68 65 46 51 48 42 37 27 18 12 3 10 13 18 25 26 29 32 33 30 33
10 14 11 10 13 15 20 27 24 16 16 14 18 29 28 27 35 33 32 34 39 42 52 50 45 47 63 72 75 73 66 56 45 34 26 23 22 19 20 20 20 22 23 20
7 12 11 10 9 9 17 27 21 17 11 15 16 16 25 32 38 40 45 44 39 42 47 46 49 56 60 61 64 65 65 64 62 63 62 58 56 52 46 47 48 42 37 35
8 12 17 16 12 7 11 19 18 17 11 7 12 18 17 17 28 35 36 39 46 51 52 59 59 59 60 61 58 52 49 48 47 49 50 48 49 49 46 45 43 45 46 43
9 10 14 16 22 10 10 17 21 17 10 11 8 14 16 15 21 17 25 32 33 36 39 43 52 61 60 56 52 56 48 41 37 36 36 35 36 38 37 34 32 33 32 29
Wind_Direction_500mb
267 284 293 278 273 268 262 261 251 231 240 259 244 252 262 285 254 252 225 205 208 209 205 209 204 206 208 214 217 215 219 221 225 226 228 231 233 234 234 233 234 236 238 238
274 284 289 271 260 255 251 255 251 265 261 267 283 291 284 311 308 289 276 249 228 227 215 212 213 215 212 216 219 216 217 219 221 224 226 229 232 234 234 232 234 237 238 239
269 321 325 266 245 240 240 239 223 222 225 302 288 356 13 344 324 304 293 271 250 232 226 224 222 219 214 217 217 217 217 216 217 221 223 225 227 231 231 232 233 237 239 239
283 320 278 250 292 214 199 181 249 260 266 295 259 140 50 6 330 310 298 287 269 252 228 228 223 213 209 204 213 215 214 212 214 216 218 221 223 226 228 231 232 236 240 241
255 265 275 224 64 154 169 115 357 290 305 296 247 228 287 357 339 320 309 294 274 254 231 220 205 211 209 204 212 213 213 211 213 215 217 219 222 224 227 231 233 236 240 243
234 271 241 94 343 323 281 176 19 350 22 346 210 188 8 347 343 332 317 298 275 228 204 202 196 197 205 205 207 210 211 210 212 214 217 219 222 225 228 234 238 239 241 242
229 253 272 318 326 296 210 96 19 16 41 42 73 52 349 7 21 8 5 4 131 173 184 187 184 194 202 206 207 204 208 210 212 215 217 216 218 223 226 230 235 237 240 242
222 227 249 344 316 262 39 42 37 27 31 44 50 43 45 41 45 44 46 52 69 108 145 161 189 201 205 209 210 209 207 209 212 216 217 223 225 226 228 231 235 239 241 244
225 219 282 300 282 6 346 4 19 23 23 27 37 47 49 51 55 53 61 67 70 95 121 132 146 179 192 202 212 212 212 213 214 217 217 219 222 224 226 229 231 234 235 237
251 20 12 290 344 353 355 344 353 16 16 28 33 41 48 49 54 55 55 61 70 84 89 96 122 159 178 188 203 208 211 211 212 212 210 213 217 219 222 224 224 225 229 235
258 325 323 267 310 342 337 344 1 17 12 24 36 36 38 38 43 44 47 48 58 65 69 71 81 95 105 136 166 184 196 203 209 214 214 217 221 223 224 227 230 231 232 235
346 322 316 295 357 7 1 1 2 360 1 11 16 13 16 23 27 32 32 35 45 51 58 59 63 73 83 92 107 124 143 160 187 197 222 220 222 228 230 231 230 235 237 238
354 351 19 26 37 32 29 18 14 10 5 0 4 4 3 357 7 16 16 22 28 27 33 44 48 57 57 66 72 97 115 152 163 157 230 230 201 232 227 235 236 233 236 240
24 20 22 30 24 31 36 33 34 35 29 15 3 5 2 359 8 11 5 5 6 11 8 12 24 24 38 47 53 72 84 100 101 137 216 228 228 230 227 235 236 241 246 251
23 29 28 31 37 37 35 33 33 30 27 26 23 19 17 17 15 17 11 355 354 352 349 351 358 1 3 4 21 48 83 179 181 195 210 213 213 220 227 235 243 249 253 250
23 32 35 38 34 34 39 37 32 20 21 24 18 19 22 22 24 13 3 357 352 350 345 341 340 340 344 342 336 330 305 232 220 226 225 230 229 227 233 248 258 264 268 259
26 20 25 34 39 38 35 34 32 29 22 27 21 18 20 22 14 5 6 1 357 349 339 335 335 333 332 329 320 308 294 279 260 259 255 247 253 256 256 245 255 260 268 264
44 38 34 40 34 33 36 40 38 29 31 26 22 25 35 33 28 20 11 5 359 353 349 345 340 332 325 321 309 296 288 277 266 257 254 255 251 257 258 247 252 264 265 263
36 38 37 30 33 35 32 34 36 36 44 43 36 41 45 43 36 34 23 12 9 2 356 352 344 335 323 315 305 294 281 275 271 260 257 253 250 249 255 256 252 248 253 262
23 32 43 43 32 35 36 36 35 32 31 41 49 47 50 53 52 49 48 45 41 26 6 354 345 339 329 318 303 287 279 269 265 269 266 259 257 257 248 244 246 246 246 253
0 22 33 40 44 36 30 29 30 28 25 31 37 49 55 58 62 63 61 52 45 37 27 15 8 359 346 340 321 292 269 264 264 264 261 256 257 253 252 254 253 255 256 257
353 1 12 12 21 22 17 18 23 23 30 35 39 44 53 59 59 59 58 56 48 45 45 35 30 35 17 350 20 18 318 292 267 257 261 260 258 257 252 247 247 249 252 252
345 356 359 6 358 2 7 356 355 7 17 34 32 33 42 48 47 46 49 43 44 44 50 51 44 55 64 58 59 63 66 76 76 115 207 211 216 216 216 223 231 230 229 235
31 8 4 3 3 18 35 26 28 39 52 52 49 49 49 45 44 46 55 56 54 55 55 57 60 56 57 65 68 70 71 70 74 75 88 103 109 121 129 141 163 174 175 180
44 18 5 352 19 50 42 35 37 38 53 56 53 52 53 63 64 56 57 56 63 63 61 55 54 57 56 52 53 57 62 64 67 71 72 78 83 86 91 96 98 101 108 113
96 46 38 35 27 62 51 37 29 27 34 42 71 62 70 68 61 61 63 62 59 60 61 57 53 50 49 47 46 45 51 55 57 59 60 57 61 63 65 73 82 91 94 96
113 71 43 36 23 21 60 41 21 24 45 56 87 89 76 71 67 80 65 62 60 59 59 57 57 53 49 47 44 36 40 53 53 51 53 53 50 51 52 52 61 76 77 76
Wind_Speed_850mb
25 31 28 36 44 39 31 30 21 37 35 27 38 39 47 38 17 13 13 30 49 59 68 83 84 90 95 96 94 87 93 93 93 90 85 83 82 75 68 63 60 58 57 60
29 29 31 44 46 45 41 43 31 37 34 22 29 20 11 19 20 24 21 26 38 50 68 79 87 94 99 96 94 92 90 90 85 85 85 82 80 77 71 64 63 63 65 63
22 20 35 28 50 48 38 24 37 37 28 15 19 9 14 17 20 27 30 27 38 53 73 79 84 88 96 96 92 89 88 84 81 82 81 77 73 74 70 68 64 68 70 69
16 17 21 24 12 44 39 10 13 22 13 16 18 12 16 21 25 28 33 37 41 44 61 82 80 76 81 85 92 89 86 82 77 77 74 73 73 73 70 69 67 69 71 72
10 12 30 24 7 25 34 8 7 13 10 14 15 13 8 36 31 33 35 40 48 48 54 62 71 83 88 88 86 85 83 80 79 79 77 74 73 70 68 70 68 69 68 69
12 13 14 7 25 24 7 9 13 13 13 18 13 11 11 38 33 30 28 31 33 36 43 53 71 75 88 87 81 80 83 80 75 72 71 70 66 61 57 57 60 61 66 68
24 16 24 13 47 26 11 10 13 17 23 26 17 12 14 27 31 21 23 23 4 27 44 63 74 78 82 77 79 74 74 70 68 63 60 56 54 55 57 60 63 65 64 64
15 19 24 28 33 6 9 7 14 20 25 26 24 22 27 37 53 44 40 42 34 34 38 47 61 58 63 69 70 72 70 68 63 61 59 58 58 57 57 58 62 64 64 64
6 4 14 31 26 16 12 7 18 22 24 23 23 34 41 51 61 77 80 71 50 47 52 49 38 43 52 53 56 53 53 53 52 53 53 53 53 57 56 57 58 57 57 58
6 5 22 24 24 23 19 15 17 21 23 26 26 29 34 49 63 72 75 83 80 78 71 60 40 37 35 40 38 47 50 51 50 50 49 49 49 50 52 54 55 53 49 48
5 5 31 28 24 25 27 16 15 18 21 28 28 28 28 33 46 53 57 60 69 76 75 71 57 47 35 25 25 32 38 40 41 41 43 46 47 48 51 51 51 52 51 47
6 31 20 22 30 28 23 21 19 20 24 26 25 23 23 23 30 37 41 45 52 56 59 59 56 49 43 37 34 35 34 32 34 29 29 41 43 49 51 53 50 48 49 49
25 31 44 30 45 41 39 36 26 21 22 25 25 23 23 22 25 28 33 36 42 44 41 40 42 42 39 33 27 25 23 21 27 21 13 27 25 34 38 43 40 42 43 46
52 40 47 62 40 51 47 43 38 33 28 28 28 27 25 22 25 25 25 28 29 33 33 35 35 34 32 28 23 19 11 10 13 13 40 38 50 42 34 38 37 39 43 47
55 50 40 46 54 55 53 54 54 51 46 39 36 33 32 27 25 26 24 27 30 32 34 35 34 30 25 19 16 14 9 4 13 21 20 19 22 21 26 27 26 28 34 39
42 48 47 47 56 53 51 56 54 53 50 45 41 37 33 29 25 23 27 32 35 40 45 46 43 37 31 25 20 14 7 7 14 20 21 15 16 19 16 15 17 20 26 30
41 51 48 54 51 53 55 49 47 43 40 42 38 37 33 29 27 32 35 36 36 34 37 43 44 42 38 33 27 23 20 16 18 22 23 23 21 20 19 15 13 18 20 28
27 28 35 38 40 40 42 48 47 41 41 35 35 32 37 41 37 38 42 43 40 37 38 39 39 38 35 31 29 30 30 29 28 29 31 32 32 32 32 30 23 23 23 28
25 28 32 36 36 38 41 42 43 41 41 43 39 42 42 40 36 33 37 39 43 48 48 43 39 39 39 37 30 29 31 34 35 36 39 43 44 43 38 36 37 33 32 36
18 20 21 21 30 35 35 41 43 43 43 42 47 49 52 49 47 42 39 48 44 40 38 43 46 42 39 35 29 27 28 29 31 32 33 35 34 34 37 51 48 46 46 44
11 15 18 20 21 27 33 34 38 44 47 51 44 42 52 57 57 60 73 73 59 49 46 42 37 38 46 36 21 19 19 25 25 30 36 39 43 48 50 54 54 48 46 45
10 14 16 20 22 21 25 29 33 35 38 33 34 42 38 42 54 63 60 62 58 67 72 60 44 37 21 16 13 5 6 12 19 21 25 31 34 35 37 45 46 42 42 42
7 13 12 13 17 21 25 24 22 25 19 23 27 28 36 46 46 39 45 47 48 49 55 68 65 46 51 48 42 37 27 18 12 3 10 13 18 25 26 29 32 33 30 33
10 14 11 10 13 15 20 27 24 16 16 14 18 29 28 27 35 33 32 34 39 42 52 50 45 47 63 72 75 73 66 56 45 34 26 23 22 19 20 20 20 22 23 20
7 12 11 10 9 9 17 27 21 17 11 15 16 16 25 32 38 40 45 44 39 42 47 46 49 56 60 61 64 65 65 64 62 63 62 58 56 52 46 47 48 42 37 35
8 12 17 16 12 7 11 19 18 17 11 7 12 18 17 17 28 35 36 39 46 51 52 59 59 59 60 61 58 52 49 48 47 49 50 48 49 49 46 45 43 45 46 43
9 10 14 16 22 10 10 17 21 17 10 11 8 14 16 15 21 17 25 32 33 36 39 43 52 61 60 56 52 56 48 41 37 36 36 35 36 38 37 34 32 33 32 29
Wind_Direction_850mb
267 284 293 278 273 268 262 261 251 231 240 259 244 252 262 285 254 252 225 205 208 209 205 209 204 206 208 214 217 215 219 221 225 226 228 231 233 234 234 233 234 236 238 238
274 284 289 271 260 255 251 255 251 265 261 267 283 291 284 311 308 289 276 249 228 227 215 212 213 215 212 216 219 216 217 219 221 224 226 229 232 234 234 232 234 237 238 239
269 321 325 266 245 240 240 239 223 222 225 302 288 356 13 344 324 304 293 271 250 232 226 224 222 219 214 217 217 217 217 216 217 221 223 225 227 231 231 232 233 237 239 239
283 320 278 250 292 214 199 181 249 260 266 295 259 140 50 6 330 310 298 287 269 252 228 228 223 213 209 204 213 215 214 212 214 216 218 221 223 226 228 231 232 236 240 241
255 265 275 224 64 154 169 115 357 290 305 296 247 228 287 357 339 320 309 294 274 254 231 220 205 211 209 204 212 213 213 211 213 215 217 219 222 224 227 231 233 236 240 243
234 271 241 94 343 323 281 176 19 350 22 346 210 188 8 347 343 332 317 298 275 228 204 202 196 197 205 205 207 210 211 210 212 214 217 219 222 225 228 234 238 239 241 242
229 253 272 318 326 296 210 96 19 16 41 42 73 52 349 7 21 8 5 4 131 173 184 187 184 194 202 206 207 204 208 210 212 215 217 216 218 223 226 230 235 237 240 242
222 227 249 344 316 262 39 42 37 27 31 44 50 43 45 41 45 44 46 52 69 108 145 161 189 201 205 209 210 209 207 209 212 216 217 223 225 226 228 231 235 239 241 244
225 219 282 300 282 6 346 4 19 23 23 27 37 47 49 51 55 53 61 67 70 95 121 132 146 179 192 202 212 212 212 213 214 217 217 219 222 224 226 229 231 234 235 237
251 20 12 290 344 353 355 344 353 16 16 28 33 41 48 49 54 55 55 61 70 84 89 96 122 159 178 188 203 208 211 211 212 212 210 213 217 219 222 224 224 225 229 235
258 325 323 267 310 342 337 344 1 17 12 24 36 36 38 38 43 44 47 48 58 65 69 71 81 95 105 136 166 184 196 203 209 214 214 217 221 223 224 227 230 231 232 235
346 322 316 295 357 7 1 1 2 360 1 11 16 13 16 23 27 32 32 35 45 51 58 59 63 73 83 92 107 124 143 160 187 197 222 220 222 228 230 231 230 235 237 238
354 351 19 26 37 32 29 18 14 10 5 0 4 4 3 357 7 16 16 22 28 27 33 44 48 57 57 66 72 97 115 152 163 157 230 230 201 232 227 235 236 233 236 240
24 20 22 30 24 31 36 33 34 35 29 15 3 5 2 359 8 11 5 5 6 11 8 12 24 24 38 47 53 72 84 100 101 137 216 228 228 230 227 235 236 241 246 251
23 29 28 31 37 37 35 33 33 30 27 26 23 19 17 17 15 17 11 355 354 352 349 351 358 1 3 4 21 48 83 179 181 195 210 213 213 220 227 235 243 249 253 250
23 32 35 38 34 34 39 37 32 20 21 24 18 19 22 22 24 13 3 357 352 350 345 341 340 340 344 342 336 330 305 232 220 226 225 230 229 227 233 248 258 264 268 259
26 20 25 34 39 38 35 34 32 29 22 27 21 18 20 22 14 5 6 1 357 349 339 335 335 333 332 329 320 308 294 279 260 259 255 247 253 256 256 245 255 260 268 264
44 38 34 40 34 33 36 40 38 29 31 26 22 25 35 33 28 20 11 5 359 353 349 345 340 332 325 321 309 296 288 277 266 257 254 255 251 257 258 247 252 264 265 263
36 38 37 30 33 35 32 34 36 36 44 43 36 41 45 43 36 34 23 12 9 2 356 352 344 335 323 315 305 294 281 275 271 260 257 253 250 249 255 256 252 248 253 262
23 32 43 43 32 35 36 36 35 32 31 41 49 47 50 53 52 49 48 45 41 26 6 354 345 339 329 318 303 287 279 269 265 269 266 259 257 257 248 244 246 246 246 253
0 22 33 40 44 36 30 29 30 28 25 31 37 49 55 58 62 63 61 52 45 37 27 15 8 359 346 340 321 292 269 264 264 264 261 256 257 253 252 254 253 255 256 257
353 1 12 12 21 22 17 18 23 23 30 35 39 44 53 59 59 59 58 56 48 45 45 35 30 35 17 350 20 18 318 292 267 257 261 260 258 257 252 247 247 249 252 252
345 356 359 6 358 2 7 356 355 7 17 34 32 33 42 48 47 46 49 43 44 44 50 51 44 55 64 58 59 63 66 76 76 115 207 211 216 216 216 223 231 230 229 235
31 8 4 3 3 18 35 26 28 39 52 52 49 49 49 45 44 46 55 56 54 55 55 57 60 56 57 65 68 70 71 70 74 75 88 103 109 121 129 141 163 174 175 180
44 18 5 352 19 50 42 35 37 38 53 56 53 52 53 63 64 56 57 56 63 63 61 55 54 57 56 52 53 57 62 64 67 71 72 78 83 86 91 96 98 101 108 113
96 46 38 35 27 62 51 37 29 27 34 42 71 62 70 68 61 61 63 62 59 60 61 57 53 50 49 47 46 45 51 55 57 59 60 57 61 63 65 73 82 91 94 96
113 71 43 36 23 21 60 41 21 24 45 56 87 89 76 71 67 80 65 62 60 59 59 57 57 53 49 47 44 36 40 53 53 51 53 53 50 51 52 52 61 76 77 76